Location: Pacheco
(37.9835°N, 122.0752°W)
Time: 09:48:25
(UTC+00:00)

Cosmos 1674 - Pass Details

Date: 13 April 2024
Orbit: 439 x 454 km, 82.5° (Epoch: 23 May)

Event Time Altitude Azimuth Distance (km) Brightness Sun altitude
Rises 11:27:07 0° 127° (SE) 2,418 6.3 -23.9°
Enters shadow 12:34:21 -57° 189° (S) 11,167 9.4 -12.2°
Maximum altitude 13:04:34 50° 279° (W) 565 2.6 -6.6°
